SCOUT A DEB, 3214

Orbit data source: Space-Track

SCOUT A DEB, 3214 is space debris in LEO originally from a launch on Sat, 02 Mar 1968 UTC launched from the Air Force Western Test Range (AFWTR). Debris objects in space refer to the collection of defunct objects orbiting the Earth. Examples of debris include non-operational satellites, rocket bodies, and fragments generated from explosions, collisions, or faulty payload assembly.

Loading next visibility...
SCOUT A DEB details
Identifier
3214, 1968-012D
Orbit
LEO
Last TLE update2 days ago
Origin
Flag of USUSN NAVAIR (US)
ManufacturerUnknown
MissionSpacecraft
Bus & MotorUnknown
MassUnknown
Launch date (UTC)
1968-03-02 (57 years ago)
Launch vehicleUnknown
Launch site
Air Force Western Test Range (AFWTR)
Object type
Payload
Rocket body
Debris
Shape & HBRUnknown
Radar Cross SectionSmall (<0.1 m²)

Expand to show TLE details & history

TLE from 2 days ago
0 SCOUT A DEB
1 03214U 68012D   24355.05707925  .00000277  00000-0  53107-3 0  9996
2 03214  89.8437 112.6471 0185250 335.3971  85.1934 13.29073373512258
Epoch: 2024-12-20T01:22Z
Definitive object data (Epoch: 2024-12-20T01:22:11.647Z)
Latitude62.79402°
Longitude3.27301°
Altitude1,152.006 km
Speed7.287 km/s
True Right ascension07h 31m 47s
True Declination62° 39' 41"
Sunlit
Object was in full shadow at TLE epoch
Visualization TLE readout
Latitude-76.08301°
Longitude2.31936°
Altitude1,081.415 km
Speed7.358 km/s
Apparent Right ascension02h 59m 24s
Apparent Declination-64° 48' 60"
Sunlit
Object is in daylight
Visualization observer readout
Local Sidereal Time13:40:17
Azimuth198.232° SSW
Elevation-62.596°
Doppler factor1
Orbital elements
Apogee altitude1,286.749 km
Perigee altitude1,007.93 km
Semi-major axis7,525.476 km
Eccentricity0.018525
Inclination89.8437°
RAAN112.6471°
Arg. of periapsis335.3971°
True anomaly87.31237°
Mean anomaly85.1934°
Eccentric anomaly86.25253°
Mean motion3.32462 °/min
BSTAR0.00053107
Orbital period108.28 mins
Loading maneuver chart data...
Loading historical data...
Loading historical data...
Loading historical data...
Loading historical data...
Loading historical data...
Loading historical data...
Loading historical data...

SCOUT A DEB Visibility forecast

Observer location: undefined°, undefined

Span
Click to sort rows by Start time (UTC) header in descending order
Start Az.
Max El. time (UTC)
Max El. Az.
Max El.
End time (UTC)
End Az.
12 mins2024-12-21 19:13:07.673Z23.412° NE2024-12-21 19:19:07.673Z80.248° E28.236°2024-12-21 19:25:07.673Z139.481° SSE
12 mins2024-12-21 21:02:07.673Z345.556° N2024-12-21 21:07:07.673Z289.943° WNW36.976°2024-12-21 21:14:07.673Z210.096° SW
10 mins2024-12-22 07:24:07.673Z128.283° SE2024-12-22 07:28:07.673Z76.927° E29.148°2024-12-22 07:34:07.673Z16.016° NNE
11 mins2024-12-22 09:11:07.673Z213.457° SW2024-12-22 09:16:07.673Z275.502° WNW31.931°2024-12-22 09:22:07.673Z341.405° N
|